User: anonymous   Login
Location: Hickory_Viewmont
(35.7830°N, 81.3170°W)
Time: 00:54:07
(UTC-04:00)
Language:

Okean-O - Orbit

View from above orbital plane
View from above orbital plane
View from above satellite
View from above satellite

Ground track
Ground track

The orbit data is extracted from the following two-line orbital elements,

1 25860U 99039A   16274.51099155  .00000199  00000-0  36169-4 0  9994
2 25860  98.1561 250.3081 0000873  97.8284 262.3024 14.76403631925514
Epoch (UTC): 30 September 2016 12:15:49
Eccentricity: 0.0000873
inclination: 98.1561°
perigee height: 640 km
apogee height: 641 km
right ascension of ascending node: 250.3081°
argument of perigee: 97.8284°
revolutions per day: 14.76403631
mean anomaly at epoch: 262.3024°
orbit number at epoch: 92551

The dashed part of the orbit path shows where the satellite is in the earth's shadow,  

DLR